Weather History for KLUK - April, 2013

Change the Weather History Date:

Thursday, April 4, 2013

  Actual Average Record
Temperature  
Mean Temperature 43 °F -  
Max Temperature 55 °F 60 °F 84 °F (1986)
Min Temperature 32 °F 40 °F 26 °F (1962)
Degree Days  
Heating Degree Days 22    
Moisture  
Dew Point 20 °F    
Average Humidity 45    
Maximum Humidity 78    
Minimum Humidity 22    
Precipitation  
Precipitation 0.00 in - - ()
Sea Level Pressure  
Sea Level Pressure 30.17 in    
Wind  
Wind Speed 5 mph (NE)    
Max Wind Speed 10 mph    
Max Gust Speed -    
Visibility 10 miles    
Events      
Averages and records for this station are not official NWS values.
T = Trace of Precipitation, MM = Missing Value Source: NWS Daily Summary

Daily Weather History Graph

Daily Weather History Graph

Search for Another Location

Airport or City:

Trip Planner

Search our weather history database for the weather conditions in past years. The results will help you decide how hot, cold, wet, or windy it might be!

Date:

Astronomy

Apr. 04, 2013 Rise Set
Actual Time 7:17 AM EDT 8:04 PM EDT
Civil Twilight 6:50 AM EDT 8:31 PM EDT
Nautical Twilight 6:18 AM EDT 9:03 PM EDT
Astronomical Twilight 5:45 AM EDT 9:37 PM EDT
Moon 3:40 AM EDT (4/4) 2:24 PM EDT (4/4)
Length of Visible Light 13h 41m
Length of Day
12h 47m
Waning Crescent, 34% of the Moon is Illuminated
Apr 4
Waning Crescent
Apr 10
New
Apr 18
First Quarter
Apr 25
Full
May 2
Last Quarter

Hourly Weather History & Observations

Time (EDT) Temp. Windchill Dew Point Humidity Pressure Visibility Wind Dir Wind Speed Gust Speed Precip Events Conditions
12:53 AM 33.1 °F 27.7 °F 23.0 °F 66% 30.36 in 10.0 mi NNE 5.8 mph - N/A   Clear
1:53 AM 35.1 °F 31.0 °F 21.0 °F 57% 30.35 in 10.0 mi NE 4.6 mph - N/A   Clear
2:53 AM 33.1 °F 27.7 °F 21.9 °F 64% 30.34 in 10.0 mi NNE 5.8 mph - N/A   Clear
3:53 AM 34.0 °F 28.8 °F 19.0 °F 54% 30.31 in 10.0 mi NNE 5.8 mph - N/A   Clear
4:53 AM 34.0 °F 31.0 °F 17.1 °F 50% 30.29 in 10.0 mi NNE 3.5 mph - N/A   Clear
5:53 AM 33.1 °F 27.7 °F 17.1 °F 52% 30.27 in 10.0 mi NE 5.8 mph - N/A   Clear
6:53 AM 32.0 °F 25.6 °F 18.0 °F 56% 30.26 in 10.0 mi NE 6.9 mph - N/A   Clear
7:53 AM 33.1 °F - 18.0 °F 54% 30.27 in 10.0 mi Calm Calm - N/A   Clear
8:53 AM 36.0 °F 31.1 °F 18.0 °F 48% 30.27 in 10.0 mi NE 5.8 mph - N/A   Clear
9:53 AM 39.9 °F 35.1 °F 19.9 °F 45% 30.24 in 10.0 mi NNE 6.9 mph - N/A   Clear
10:53 AM 43.0 °F 37.2 °F 17.1 °F 35% 30.21 in 10.0 mi ENE 10.4 mph - N/A   Clear
11:53 AM 46.9 °F - 19.0 °F 33% 30.18 in 10.0 mi Variable 6.9 mph - N/A   Clear
12:53 PM 48.9 °F - 16.0 °F 27% 30.15 in 10.0 mi ENE 6.9 mph - N/A   Clear
1:53 PM 51.1 °F - 16.0 °F 25% 30.12 in 10.0 mi Calm Calm - N/A   Clear
2:53 PM 53.1 °F - 18.0 °F 25% 30.09 in 10.0 mi Calm Calm - N/A   Clear
3:53 PM 54.0 °F - 16.0 °F 22% 30.07 in 10.0 mi Calm Calm - N/A   Clear
4:53 PM 54.0 °F - 15.1 °F 22% 30.04 in 10.0 mi SW 4.6 mph - N/A   Clear
5:53 PM 54.0 °F - 19.0 °F 25% 30.04 in 10.0 mi South 8.1 mph - N/A   Clear
6:53 PM 53.1 °F - 19.0 °F 26% 30.04 in 10.0 mi Variable 3.5 mph - N/A   Clear
7:53 PM 50.0 °F - 21.9 °F 33% 30.03 in 10.0 mi SSE 3.5 mph - N/A   Clear
8:53 PM 45.0 °F - 27.0 °F 49% 30.03 in 10.0 mi Calm Calm - N/A   Clear
9:53 PM 39.9 °F - 28.9 °F 65% 30.04 in 10.0 mi Calm Calm - N/A   Clear
10:53 PM 37.9 °F - 30.9 °F 76% 30.03 in 10.0 mi Calm Calm - N/A   Clear
11:53 PM 35.1 °F - 28.9 °F 78% 30.03 in 10.0 mi Calm Calm - N/A   Clear